Weather History for Sheridan, WY

Change the Weather History Date:

Saturday, March 22, 2014

  Actual Average Record
Temperature  
Mean Temperature 17 °F 37 °F  
Max Temperature 24 °F 51 °F 78 °F (1928)
Min Temperature 9 °F 24 °F -3 °F (1965)
Degree Days  
Heating Degree Days 48 28  
Month to date heating degree days 722 686  
Since 1 July heating degree days 6472 6221  
Cooling Degree Days 0 0  
Month to date cooling degree days 0 0  
Year to date cooling degree days 0 0  
Moisture  
Dew Point 12 °F    
Average Humidity 74    
Maximum Humidity 88    
Minimum Humidity 60    
Precipitation  
Precipitation 0.08 in 0.03 in 0.91 in (1931)
Month to date precipitation 1.17 0.63  
Year to date precipitation 3.02 1.73  
Sea Level Pressure  
Sea Level Pressure 30.39 in    
Wind  
Wind Speed 3 mph (NE)    
Max Wind Speed 9 mph    
Max Gust Speed 11 mph    
Visibility 5 miles    
Events Fog , Snow    
T = Trace of Precipitation, MM = Missing Value Source: NWS Daily Summary

Daily Weather History Graph

Daily Weather History Graph

Search for Another Location

Airport:

Trip Planner

Search our weather history database for the weather conditions in past years. The results will help you decide how hot, cold, wet, or windy it might be!

Date:

Astronomy

Mar. 22, 2014 Rise Set
Actual Time 7:07 AM MDT 7:22 PM MDT
Civil Twilight 6:38 AM MDT 7:52 PM MDT
Nautical Twilight 6:03 AM MDT 8:26 PM MDT
Astronomical Twilight 5:28 AM MDT 9:02 PM MDT
Moon 12:56 AM MDT 10:41 AM MDT
Length of Visible Light 13h 14m
Length of Day
12h 15m
Waning Gibbous, 65% of the Moon is Illuminated
Mar 22
Waning Gibbous
Mar 23
Last Quarter
Mar 30
New
Apr 7
First Quarter
Apr 15
Full

Hourly Weather History & Observations

Time (MDT) Temp. Windchill Dew Point Humidity Pressure Visibility Wind Dir Wind Speed Gust Speed Precip Events Conditions
12:53 AM 19.0 °F 9.0 °F 16.0 °F 88% 30.43 in 2.0 mi NNE 8.1 mph - 0.01 in Snow Light Snow
1:53 AM 18.0 °F 6.9 °F 14.0 °F 84% 30.42 in 2.5 mi NE 9.2 mph - 0.00 in Snow Light Snow
2:37 AM 17.1 °F 7.6 °F 12.9 °F 84% 30.27 in 3.0 mi NE 6.9 mph - 0.01 in Snow Light Snow
2:53 AM 17.1 °F 6.6 °F 12.9 °F 84% 30.43 in 2.5 mi NE 8.1 mph - 0.01 in Snow Light Snow
3:18 AM 16.0 °F 7.4 °F 12.0 °F 84% 30.27 in 4.0 mi NE 5.8 mph - 0.00 in Snow Light Snow
3:53 AM 17.1 °F 7.6 °F 12.9 °F 84% 30.41 in 3.0 mi NE 6.9 mph - 0.00 in Snow Light Snow
4:15 AM 17.1 °F 8.7 °F 12.0 °F 81% 30.27 in 1.8 mi NNE 5.8 mph - 0.00 in Snow Light Snow
4:25 AM 17.1 °F 7.6 °F 12.9 °F 84% 30.27 in 2.5 mi NNE 6.9 mph - 0.00 in Snow Light Snow
4:53 AM 16.0 °F 8.8 °F 12.0 °F 84% 30.44 in 2.0 mi NNE 4.6 mph - 0.01 in Snow Light Snow
5:09 AM 16.0 °F 8.8 °F 12.9 °F 88% 30.29 in 1.2 mi North 4.6 mph - 0.00 in Snow Light Snow
5:39 AM 16.0 °F 10.4 °F 12.0 °F 84% 30.29 in 2.0 mi NE 3.5 mph - 0.01 in Snow Light Snow
5:53 AM 16.0 °F - 12.0 °F 84% 30.46 in 2.5 mi Calm Calm - 0.01 in Snow Light Snow
6:21 AM 16.0 °F 10.4 °F 12.0 °F 84% 30.30 in 1.2 mi NNW 3.5 mph - 0.00 in Snow Light Snow
6:37 AM 16.0 °F 10.4 °F 12.0 °F 84% 30.30 in 1.5 mi North 3.5 mph - 0.00 in Snow Light Snow
6:47 AM 15.8 °F - 12.2 °F 86% 30.31 in 2.0 mi Calm Calm - 0.00 in Snow Light Snow
6:53 AM 16.0 °F - 12.0 °F 84% 30.48 in 2.5 mi Calm Calm - 0.00 in Snow Light Snow
7:04 AM 16.0 °F - 12.9 °F 88% 30.31 in 1.5 mi Calm Calm - 0.01 in Snow Light Snow
7:16 AM 17.1 °F - 12.0 °F 81% 30.32 in 0.8 mi Calm Calm - 0.01 in Snow Light Snow
7:26 AM 16.0 °F - 12.0 °F 84% 30.32 in 0.5 mi Calm Calm - 0.01 in Fog , Snow Light Snow
7:34 AM 16.0 °F - 12.0 °F 84% 30.33 in 0.8 mi Calm Calm - 0.02 in Snow Light Snow
7:41 AM 16.0 °F - 12.0 °F 84% 30.33 in 1.0 mi Calm Calm - 0.02 in Snow Light Snow
7:53 AM 16.0 °F - 12.9 °F 88% 30.51 in 1.0 mi Calm Calm - 0.03 in Snow Light Snow
8:05 AM 16.0 °F - 12.9 °F 88% 30.34 in 0.8 mi Calm Calm - 0.00 in Snow Light Snow
8:21 AM 16.0 °F - 12.9 °F 88% 30.34 in 1.2 mi Calm Calm - 0.00 in Snow Light Snow
8:29 AM 17.1 °F - 12.9 °F 84% 30.34 in 2.5 mi Calm Calm - 0.00 in Snow Light Snow
8:41 AM 17.1 °F 10.0 °F 12.0 °F 81% 30.34 in 1.0 mi NE 4.6 mph - 0.01 in Snow Light Snow
8:47 AM 15.8 °F 7.2 °F 10.4 °F 79% 30.34 in 0.8 mi ENE 5.8 mph - 0.01 in Snow Light Snow
8:48 AM 16.0 °F 7.4 °F 10.9 °F 81% 30.52 in 0.8 mi ENE 5.8 mph - 0.01 in Snow Light Snow
9:00 AM 17.1 °F 8.7 °F 10.9 °F 77% 30.34 in 2.0 mi East 5.8 mph - 0.00 in Snow Light Snow
9:07 AM 17.1 °F 8.7 °F 10.9 °F 77% 30.34 in 4.0 mi ESE 5.8 mph - 0.00 in Snow Light Snow
9:53 AM 18.0 °F 12.7 °F 10.9 °F 74% 30.53 in 10.0 mi ENE 3.5 mph - 0.00 in   Overcast
10:18 AM 18.0 °F 12.7 °F 10.0 °F 71% 30.36 in 10.0 mi East 3.5 mph - N/A   Overcast
10:25 AM 18.0 °F 12.7 °F 10.0 °F 71% 30.36 in 3.0 mi East 3.5 mph - 0.00 in Snow Light Snow
10:31 AM 19.0 °F 13.9 °F 10.9 °F 71% 30.36 in 1.8 mi ENE 3.5 mph - 0.00 in Snow Light Snow
10:53 AM 19.9 °F 12.1 °F 12.9 °F 74% 30.53 in 1.2 mi NE 5.8 mph - 0.01 in Snow Light Snow
11:04 AM 19.9 °F 11.1 °F 12.9 °F 74% 30.37 in 2.0 mi NE 6.9 mph - 0.00 in Snow Light Snow
11:10 AM 19.9 °F 12.1 °F 12.9 °F 74% 30.37 in 1.8 mi NNE 5.8 mph - 0.00 in Snow Light Snow
11:16 AM 19.9 °F 12.1 °F 12.0 °F 71% 30.36 in 2.0 mi NE 5.8 mph - 0.00 in Snow Light Snow
11:30 AM 19.9 °F 13.4 °F 12.0 °F 71% 30.36 in 3.0 mi NE 4.6 mph - 0.00 in Snow Light Snow
11:51 AM 19.4 °F 14.3 °F 12.2 °F 74% 30.36 in 2.0 mi ENE 3.5 mph - 0.00 in Snow Light Snow
11:53 AM 19.9 °F 13.4 °F 12.9 °F 74% 30.54 in 2.0 mi ENE 4.6 mph - 0.00 in Snow Light Snow
12:10 PM 21.0 °F 14.6 °F 12.9 °F 71% 30.36 in 5.0 mi ENE 4.6 mph - 0.00 in Snow Light Snow
12:32 PM 23.0 °F 17.0 °F 12.0 °F 63% 30.36 in 10.0 mi ENE 4.6 mph - 0.00 in   Scattered Clouds
12:53 PM 21.9 °F 17.2 °F 12.0 °F 66% 30.53 in 10.0 mi ESE 3.5 mph - 0.00 in   Partly Cloudy
1:09 PM 23.0 °F 18.4 °F 12.0 °F 63% 30.36 in 10.0 mi Variable 3.5 mph - N/A   Mostly Cloudy
1:53 PM 21.0 °F - 14.0 °F 74% 30.53 in 4.0 mi Calm Calm - 0.00 in Snow Light Snow
2:53 PM 23.0 °F - 12.0 °F 63% 30.52 in 10.0 mi Calm Calm - 0.00 in   Overcast
3:48 PM 21.2 °F 14.9 °F 12.2 °F 68% 30.34 in 10.0 mi WNW 4.6 mph - 0.00 in   Mostly Cloudy
3:53 PM 21.9 °F 15.7 °F 12.0 °F 66% 30.51 in 10.0 mi NW 4.6 mph - 0.00 in   Mostly Cloudy
4:53 PM 24.1 °F 19.7 °F 12.9 °F 62% 30.50 in 10.0 mi East 3.5 mph - N/A   Overcast
5:00 PM 23.0 °F - 12.0 °F 63% 30.33 in 10.0 mi Calm Calm - N/A   Overcast
5:53 PM 23.0 °F 18.4 °F 12.9 °F 65% 30.49 in 10.0 mi NE 3.5 mph - N/A   Mostly Cloudy
6:16 PM 21.9 °F - 12.0 °F 66% 30.31 in 10.0 mi Calm Calm - N/A   Partly Cloudy
6:53 PM 21.0 °F 13.4 °F 12.0 °F 68% 30.48 in 10.0 mi SSW 5.8 mph - N/A   Partly Cloudy
7:13 PM 19.9 °F 14.9 °F 10.9 °F 68% 30.30 in 10.0 mi WSW 3.5 mph - N/A   Mostly Cloudy
7:33 PM 19.0 °F - 10.9 °F 71% 30.30 in 10.0 mi Calm Calm - N/A   Scattered Clouds
7:53 PM 18.0 °F - 12.0 °F 78% 30.49 in 10.0 mi Calm Calm - N/A   Clear
8:53 PM 16.0 °F - 10.9 °F 81% 30.48 in 10.0 mi Calm Calm - N/A   Clear
9:53 PM 12.9 °F 6.9 °F 8.1 °F 81% 30.47 in 10.0 mi South 3.5 mph - N/A   Clear
10:53 PM 12.0 °F - 7.0 °F 80% 30.45 in 10.0 mi Calm Calm - N/A   Clear
11:53 PM 10.9 °F 2.9 °F 7.0 °F 84% 30.43 in 7.0 mi SSW 4.6 mph - N/A   Clear